Theta_e
317 317 316 314 314 314 314 315 315 314 314 314 316 317 319 319 319 309 303 307 313 322 321 312 305 301 301 298 299 296 288 284 285 286 287 290 289 293 296 293 294 299 297 298 303
319 317 316 316 315 314 315 314 314 314 313 314 315 317 318 319 310 305 310 318 320 321 310 300 297 300 296 296 296 292 287 286 288 288 288 291 290 293 292 292 293 295 298 299 304
321 319 317 317 316 315 315 315 314 314 313 313 315 316 317 317 304 302 315 317 319 319 309 306 300 299 294 295 293 290 288 290 291 294 292 292 292 294 292 290 294 293 294 298 300
322 320 319 317 316 316 315 315 315 314 313 313 314 316 319 310 291 304 317 320 320 311 306 300 299 294 292 290 293 289 293 293 294 295 294 292 293 291 292 293 297 296 294 298 298
321 320 320 319 317 316 315 315 315 315 314 313 314 316 309 299 299 306 317 315 307 305 301 298 295 294 291 291 293 290 292 295 295 295 294 295 291 292 293 295 296 295 298 296 298
321 319 319 319 318 317 315 315 315 315 315 314 314 316 304 292 305 308 307 307 305 302 299 299 296 297 294 293 291 292 293 293 294 294 294 291 291 292 292 295 295 295 295 296 298
320 320 319 318 318 317 316 315 315 315 315 314 314 310 300 296 305 306 307 305 305 304 299 300 300 297 295 292 295 294 289 291 292 294 293 293 287 290 293 296 295 295 294 296 297
319 320 319 318 318 316 316 316 315 315 315 315 314 304 293 304 302 305 307 305 306 305 303 304 303 299 296 295 294 290 288 282 290 293 293 289 281 291 295 294 294 293 293 293 295
316 317 319 319 318 316 316 316 315 316 315 313 303 299 291 307 301 305 305 303 303 302 303 306 301 295 295 288 284 285 279 282 287 293 292 289 282 292 294 294 293 293 291 292 293
316 316 318 319 318 317 316 315 315 314 308 307 300 291 295 295 301 303 305 306 301 298 299 298 294 289 288 284 278 281 281 285 284 289 290 287 287 291 294 293 293 293 291 291 292
315 316 316 319 318 316 310 302 298 297 297 290 291 292 296 300 303 301 304 303 300 297 289 292 288 283 287 288 286 286 283 282 284 290 287 285 286 288 292 292 292 292 291 290 291
313 314 315 317 319 315 306 299 299 298 294 296 295 296 299 300 295 300 304 297 295 290 290 286 283 289 291 291 288 284 283 282 285 289 286 280 283 287 290 292 293 293 291 290 288
310 312 314 315 318 309 304 299 301 300 292 293 296 295 297 299 295 295 301 297 293 290 287 284 286 292 290 288 287 283 282 282 281 285 285 283 281 283 289 290 293 293 292 290 289
309 310 312 316 307 305 302 304 301 304 288 292 291 294 297 298 292 300 301 297 293 290 288 287 289 289 287 286 287 283 287 287 285 280 275 281 274 279 286 287 291 292 289 288 288
308 309 310 314 305 302 304 301 302 304 281 291 290 297 297 292 292 295 299 296 291 290 288 286 286 286 286 286 288 284 288 286 285 282 280 278 276 279 284 284 287 290 291 289 287
307 308 309 307 305 303 302 301 302 286 279 285 289 289 290 291 292 295 296 297 295 291 289 287 291 288 287 288 289 290 287 286 283 280 273 277 276 278 281 285 285 288 291 290 286
306 307 307 306 300 303 303 299 285 281 287 281 283 288 288 287 289 292 290 288 285 280 281 285 286 287 289 286 289 287 282 276 274 272 274 277 276 280 283 286 287 288 290 287 285
305 306 305 305 306 301 299 288 279 279 281 287 287 287 284 288 287 290 288 286 289 286 280 279 278 285 288 286 284 284 282 278 273 274 276 278 277 282 284 286 287 289 290 285 284
304 299 297 303 303 301 292 282 281 279 287 285 286 281 282 285 285 287 286 283 288 289 286 280 280 286 287 287 287 284 281 284 279 271 274 276 279 284 285 284 285 286 286 285 284
297 296 293 303 302 297 286 286 281 288 289 287 284 285 279 281 283 285 285 287 287 291 292 288 281 284 286 287 286 284 286 279 278 271 272 275 277 279 281 284 285 284 284 284 284
295 288 294 302 301 290 282 284 284 290 290 287 285 281 284 281 282 282 284 288 290 290 293 290 286 281 283 282 282 282 280 281 281 279 276 274 277 282 284 286 285 286 286 285 284
292 282 294 301 286 285 284 286 291 289 291 288 288 287 284 284 282 283 283 286 289 292 287 288 285 279 280 284 285 283 282 282 278 278 277 279 279 284 284 285 287 286 287 286 286
285 285 293 297 282 283 286 287 288 288 288 286 286 289 288 285 282 284 284 289 290 291 288 288 281 275 279 279 281 281 283 283 282 280 277 277 280 285 283 283 286 287 287 287 285
284 280 284 288 288 285 284 285 286 289 288 288 288 288 287 284 286 285 284 287 288 289 293 295 284 282 281 280 281 279 281 284 282 277 279 279 280 285 284 284 283 287 289 287 287
284 279 281 278 280 283 284 286 285 283 287 291 284 287 286 283 284 285 285 284 288 291 288 290 282 282 283 281 280 280 281 282 282 284 282 283 281 285 286 285 285 287 289 287 286
283 282 284 282 283 281 282 283 285 286 285 287 287 288 289 284 287 283 284 284 287 287 287 286 281 280 280 280 280 279 280 282 283 284 283 281 281 287 286 284 285 287 289 289 288
286 288 282 282 280 281 281 283 284 288 287 291 290 288 287 290 289 289 291 290 290 287 284 283 280 279 277 276 279 280 282 280 282 285 286 282 288 287 286 285 286 287 290 291 291
Wind_Speed
5 5 6 6 9 9 10 10 10 11 13 15 15 16 16 16 14 1 1 1 4 9 6 6 2 1 3 3 4 3 5 1 3 6 5 4 3 2 2 3 1 3 3 2 6
7 5 5 7 6 8 10 10 10 11 12 14 15 16 16 16 3 2 2 5 6 6 3 3 1 1 3 2 3 5 4 4 1 2 5 5 4 5 2 1 0 1 1 4 3
8 7 5 6 7 7 9 11 11 10 11 13 15 15 16 10 2 2 3 5 5 1 2 3 2 1 3 3 3 2 3 4 1 2 4 6 3 4 4 3 6 6 2 2 4
9 8 8 7 6 8 8 10 12 11 11 12 14 15 17 1 3 1 3 5 3 1 2 2 1 3 3 3 2 5 4 3 2 3 3 4 1 1 4 5 6 6 3 1 4
10 8 7 7 7 7 9 9 12 13 13 13 13 15 5 1 6 2 3 3 1 1 2 1 2 3 5 4 3 4 2 3 3 5 3 1 3 5 5 6 6 5 4 3 4
11 10 8 7 7 8 7 9 11 13 13 13 12 11 2 3 2 2 3 1 0 2 1 2 1 3 5 3 3 3 4 4 2 1 1 1 2 1 3 7 5 5 5 5 4
10 11 10 8 7 7 9 9 11 13 14 13 11 2 2 8 3 4 3 2 2 2 2 0 2 4 3 4 5 6 3 1 3 3 2 2 5 8 4 6 7 5 7 6 4
11 10 11 10 8 7 9 12 11 14 14 14 8 2 5 1 2 4 4 1 3 2 3 1 6 7 4 4 5 2 3 2 2 5 1 2 8 2 8 7 8 7 7 6 5
10 11 13 11 9 9 8 14 13 15 12 9 3 2 6 1 0 2 1 1 2 3 3 1 5 4 4 6 5 6 3 3 2 7 3 3 6 4 7 7 9 8 7 6 5
10 10 11 12 11 9 6 9 12 10 3 1 4 3 1 2 1 1 1 2 2 2 3 4 5 4 3 4 6 7 4 4 4 5 4 3 11 8 8 7 10 8 8 7 6
8 9 11 8 11 7 2 3 1 2 3 8 4 3 4 2 1 1 1 2 3 1 5 2 4 8 11 7 3 6 3 3 1 2 3 7 11 11 11 7 11 8 8 8 7
10 10 12 10 12 11 4 1 1 3 7 6 6 6 2 6 3 4 3 5 4 5 5 4 7 8 6 7 4 4 3 3 3 2 2 3 14 13 9 10 13 11 8 9 4
12 11 11 17 12 7 5 5 3 3 3 6 6 5 6 7 7 8 11 4 5 6 7 7 2 7 6 6 6 3 5 4 4 1 2 5 10 6 2 6 6 6 6 5 8
12 11 11 11 7 5 4 6 4 3 2 6 6 5 4 6 4 3 8 6 4 10 7 5 3 6 4 5 5 4 5 5 4 3 3 1 7 7 3 5 5 8 8 8 7
14 11 9 15 6 5 4 8 5 3 6 2 3 2 1 5 7 3 2 4 6 6 6 5 8 5 4 4 6 5 4 5 2 2 3 1 2 11 1 6 9 9 9 9 8
13 12 6 6 1 1 7 8 5 2 9 3 1 4 4 1 2 3 3 0 4 3 5 2 1 2 3 2 1 6 6 7 5 3 3 4 5 9 6 8 4 6 9 10 9
14 14 7 4 1 3 10 3 4 7 4 4 5 4 3 5 4 4 6 7 8 6 3 2 1 1 4 6 5 4 6 3 4 4 7 1 3 13 7 8 7 12 12 11 9
15 15 4 4 2 4 1 3 8 7 8 3 5 4 6 5 2 5 7 6 7 3 4 8 4 9 5 5 7 6 6 7 8 5 3 3 8 10 5 5 4 7 10 8 9
13 2 3 4 7 6 2 6 14 10 8 10 4 5 4 4 5 5 8 6 6 10 6 7 3 2 2 1 3 7 6 3 7 3 3 5 8 10 2 2 4 9 10 11 9
2 3 4 6 11 8 5 16 9 9 8 5 13 7 9 7 6 8 10 7 6 11 3 6 4 2 0 0 1 3 2 3 2 4 5 5 6 9 6 9 7 9 11 9 7
2 3 5 10 9 10 14 14 8 7 8 8 9 6 7 9 7 6 5 4 7 9 15 4 4 1 2 7 8 4 3 3 2 5 6 2 9 8 10 13 17 15 15 14 11
3 5 3 8 9 6 17 12 5 9 4 8 6 5 9 9 7 8 8 5 2 4 10 6 5 5 8 4 3 2 6 7 6 6 3 2 9 3 6 9 12 11 13 11 10
3 3 3 8 11 16 8 8 5 12 12 10 10 5 4 8 4 5 7 0 1 5 9 7 4 4 5 5 3 6 7 5 3 3 8 8 8 1 4 5 11 14 13 12 10
2 4 3 4 4 9 19 20 17 3 10 5 7 6 6 4 1 8 6 2 4 5 2 6 1 7 10 4 6 8 9 14 7 4 5 8 4 5 7 8 8 10 13 14 14
4 6 4 7 12 13 3 5 18 8 6 13 1 10 12 7 6 6 4 3 1 6 3 6 6 3 5 1 2 5 6 17 19 18 12 9 10 9 9 11 10 10 9 11 13
5 3 3 3 2 13 16 5 13 26 11 23 20 24 19 12 12 11 10 5 6 2 4 5 5 4 5 5 3 6 9 13 20 21 11 8 7 9 1 6 7 11 13 15 16
3 2 3 5 4 5 4 11 8 13 8 20 23 9 12 18 5 1 7 7 10 11 8 5 5 4 5 1 2 15 22 16 10 15 22 21 27 3 7 9 12 13 17 20 20
Wind_Direction
281 308 317 333 332 338 339 346 352 351 344 341 339 338 337 336 324 74 253 295 301 323 331 287 279 336 53 64 43 93 63 169 161 154 169 192 137 279 159 131 168 170 141 277 304
266 275 302 312 327 335 335 335 338 346 341 339 336 335 334 337 314 285 154 295 301 321 319 18 54 56 37 41 13 78 108 194 270 133 164 163 171 178 135 98 155 188 312 337 3
255 260 270 293 305 322 332 335 330 337 338 335 333 332 329 328 321 216 216 289 295 301 264 305 295 194 68 54 12 60 155 163 68 43 131 148 136 185 152 203 214 208 266 324 330
249 248 259 274 290 311 325 331 331 329 333 332 330 330 324 242 223 229 272 288 283 226 266 271 125 102 95 115 45 90 21 134 143 14 89 138 238 224 191 230 178 196 161 175 320
239 248 255 257 277 293 313 328 328 325 328 330 331 331 353 340 254 194 308 316 284 263 234 155 138 138 142 119 87 93 159 60 105 92 98 146 225 226 232 196 185 171 131 232 265
233 238 241 263 269 286 297 311 321 324 322 326 330 331 22 260 110 327 319 331 182 200 228 184 194 152 103 77 101 108 103 131 148 118 98 193 252 72 259 186 191 175 211 234 261
289 239 234 237 257 280 290 300 313 315 317 319 323 335 86 237 340 317 296 228 230 191 162 276 165 73 111 98 149 137 92 14 212 203 199 130 270 233 211 179 193 213 228 227 245
341 267 235 224 229 259 290 299 310 308 308 310 309 285 242 330 328 315 329 341 48 103 113 70 99 97 84 124 64 64 53 108 199 165 191 128 268 258 184 168 215 213 228 234 252
340 336 259 223 213 240 271 293 309 298 296 304 289 221 271 345 247 252 323 212 61 29 43 79 68 99 56 95 35 9 204 198 265 201 132 177 267 264 190 190 226 225 224 237 250
337 337 325 235 210 221 250 276 271 292 326 145 272 317 271 211 187 260 313 181 100 81 55 60 58 86 59 98 205 193 206 230 234 216 184 230 259 269 229 207 232 226 225 232 247
333 335 345 253 201 187 22 337 293 310 235 193 222 270 142 148 67 254 287 136 110 69 155 188 121 198 203 186 141 141 170 189 229 198 194 233 267 253 241 233 236 228 226 227 243
323 335 350 319 203 147 101 250 273 138 293 244 230 266 209 157 133 216 130 165 162 189 137 57 225 215 173 171 139 111 141 247 320 199 176 341 273 252 221 227 212 201 217 217 226
310 320 331 337 170 130 157 189 105 152 256 277 213 195 203 147 195 205 151 176 185 183 184 163 249 145 133 154 157 171 182 197 203 148 240 316 293 313 239 244 189 192 196 176 206
297 304 317 314 134 146 191 174 136 134 297 235 212 239 150 157 225 165 176 166 219 194 166 228 149 158 133 177 148 195 192 148 166 98 222 115 277 294 276 258 206 187 186 185 194
296 288 311 196 135 171 182 134 120 59 278 146 184 315 176 202 141 210 185 129 199 181 133 231 162 154 159 206 172 205 129 140 164 113 32 260 86 269 34 261 231 203 194 195 200
287 281 287 304 162 184 141 113 82 195 232 196 158 162 149 186 83 109 142 307 141 112 45 107 226 165 145 90 96 142 80 44 39 68 7 229 148 277 201 209 206 184 190 192 192
286 281 252 136 231 212 140 123 108 229 341 224 194 174 193 174 136 149 173 185 161 116 190 32 191 282 144 85 23 84 94 26 349 4 218 290 137 247 252 225 209 191 180 189 180
280 274 248 205 166 176 38 88 198 219 213 184 143 128 193 164 199 161 123 208 241 108 119 156 255 177 185 197 180 176 169 159 198 199 229 345 233 252 225 290 213 165 168 154 180
285 257 242 198 153 192 150 190 200 182 174 146 104 115 237 219 147 150 176 200 225 182 182 158 239 60 90 139 149 185 204 171 108 47 50 215 281 300 191 69 119 137 151 181 184
217 237 218 178 156 178 206 220 201 172 139 137 185 173 177 195 164 176 171 203 214 188 232 206 106 14 309 273 258 182 170 112 349 134 244 269 277 241 217 207 183 160 184 192 177
235 229 255 167 148 188 208 221 209 203 140 155 187 155 194 174 177 187 204 273 207 193 184 182 113 11 106 209 190 158 200 207 139 162 174 205 257 216 208 191 190 190 183 185 182
227 221 250 163 196 191 211 191 164 172 158 217 144 139 176 174 170 179 198 245 84 173 185 192 125 173 201 269 240 251 209 174 145 212 225 192 274 189 208 188 182 187 187 183 182
241 196 279 201 218 222 217 212 190 166 192 172 188 163 159 173 156 198 175 117 169 153 174 186 203 111 333 337 344 220 206 197 126 66 197 144 257 228 245 216 204 179 184 180 174
150 219 237 223 244 222 222 223 210 263 183 166 158 128 122 168 169 185 204 128 317 113 74 66 199 221 210 195 149 195 198 191 163 153 182 219 254 256 241 220 193 186 186 176 177
212 221 199 198 229 242 263 217 208 190 245 170 104 184 167 161 158 206 181 121 329 82 105 137 243 237 261 302 202 236 204 195 205 213 199 223 213 244 229 216 199 188 164 166 176
233 246 188 165 172 202 230 245 222 219 181 193 208 202 186 186 188 182 148 190 178 93 171 189 204 145 281 322 317 278 231 206 212 226 259 255 270 232 353 126 169 185 175 188 194
170 258 269 165 160 169 218 226 276 230 227 214 213 146 195 207 126 40 164 163 153 164 166 164 148 120 255 58 82 275 230 185 200 215 212 227 231 165 220 207 199 195 195 196 195